Location: D?uga
(50.2667°N, 19.7833°E)
Time: 01:30:19
(UTC+00:00)

Cosmos 2228 Rocket - Pass Details

Date: 23 May 2024
Orbit: 616 x 648 km, 82.5° (Epoch: 18 June)

Event Time Altitude Azimuth Distance (km) Brightness Sun altitude
Exits shadow 00:05:25 24° 238° (WSW) 1,313 4.3 -16.5°
Maximum altitude 00:07:27 37° 288° (WNW) 996 4.0 -16.4°
Drops below altitude 10° 00:11:38 10° 356° (N) 2,037 6.7 -16.1°
Sets 00:14:03 0° 5° (N) 2,956 8.0 -16.0°
